Miscellaneous Local Product
Issued by NWS Hastings, NE

Home | Current Version | Previous Version | Text Only | Print | Product List | Glossary Off
Versions: 1 2 3 4 5 6 7 8 9 10 11 12 13 14 15 16 17 18 19 20 21 22 23 24 25 26 27 28 29 30 31 32 33 34 35 36 37 38 39 40 41 42 43 44 45 46 47 48 49 50

834
AXUS43 KGID 220302
MISGRI

GID CWA HOURLY WEATHER ROUNDUP
NATIONAL WEATHER SERVICE HASTINGS NE
900 PM CST TUE FEB 21 2017

NOTE: "FAIR" INDICATES FEW OR NO CLOUDS BELOW 12,000 FEET WITH NO
SIGNIFICANT WEATHER AND/OR OBSTRUCTIONS TO VISIBILITY.

...SOUTH CENTRAL NEBRASKA...

CITY           SKY/WX    TMP DP  RH WIND       PRES   REMARKS
GRAND ISLAND   CLEAR     54  34  46 S9        29.78F
HASTINGS       CLEAR     57  28  33 S8        29.80F
KEARNEY        CLEAR     59  27  29 SW10      29.79F
ORD            CLEAR     52  32  46 SW9       29.75S
YORK           CLEAR     52  32  46 S8        29.79S
AURORA         CLEAR     56  30  36 SW12      29.78F
LEXINGTON      CLEAR     55  27  33 W6        29.81R
HOLDREGE       CLEAR     58  24  27 S8        29.80F
HEBRON         CLEAR     55  28  34 S10       29.82S

...NEBRASKA PANHANDLE...

CITY           SKY/WX    TMP DP  RH WIND       PRES   REMARKS
CHADRON        CLEAR     50  27  40 W7        29.75R
ALLIANCE       CLEAR     52  24  33 W16       29.78F
SCOTTSBLUFF    CLEAR     63  16  16 W21G28    29.80F
SIDNEY         CLEAR     55  17  22 W20       29.84F

...WESTERN AND NORTH CENTRAL NEBRASKA...

CITY           SKY/WX    TMP DP  RH WIND       PRES   REMARKS
VALENTINE      CLEAR     54  29  38 W14       29.73R
AINSWORTH      MOCLDY    49  33  54 SW8       29.74R
ONEILL         PTCLDY    54  36  49 SW7       29.71F
BROKEN BOW     CLEAR     44  29  55 CALM      29.78S
IMPERIAL       CLOUDY    43  23  45 S8        29.84F
NORTH PLATTE   CLEAR     48  25  40 CALM      29.80F
MCCOOK         CLEAR     54  25  32 SW8       29.82F

...EASTERN NEBRASKA...

CITY           SKY/WX    TMP DP  RH WIND       PRES   REMARKS
NORFOLK        CLEAR     55  34  45 S13       29.72S
SO SIOUX CITY  CLEAR     52  37  56 E6        29.72F
TEKAMAH        CLEAR     46  37  71 S8        29.75F
COLUMBUS       CLEAR     61  30  31 S10       29.76S
ALBION         PTCLDY    57  32  38 SE3       29.74F
OMAHA EPPLEY   CLEAR     52  37  56 S8        29.78F
OFFUTT AFB     CLEAR     47  39  71 E8        29.79F
MILLARD        CLEAR     58  39  49 SE5       29.79S
LINCOLN        CLEAR     57  32  38 S12       29.80F
NEBRASKA CITY  CLEAR     57  28  33 S15       29.82F
BEATRICE       CLEAR     57  35  44 S10       29.82F
FALLS CITY     CLEAR     54  35  48 S10       29.85F

...NORTHERN KANSAS...

CITY           SKY/WX    TMP DP  RH WIND       PRES   REMARKS
GOODLAND       CLEAR     62  17  17 S13       29.89F
HILL CITY      CLEAR     55  26  32 SW8       29.85F
NORTON         CLEAR     54  19  26 SW8       29.83S
PHILLIPSBURG   CLEAR     54  27  35 SW6       29.83S
SMITH CENTER   CLEAR     50  27  40 S8        29.83F
HAYS             N/A     53  26  35 S8        29.88S
RUSSELL        CLEAR     48  27  44 S12       29.86S
CONCORDIA      CLEAR     60  29  30 S21       29.84S
SALINA         CLEAR     51  37  58 S8        29.87F
TOPEKA         CLEAR     47  35  63 CALM      29.89F



USA.gov is the U.S. government's official web portal to all federal, state and local government web resources and services.